EHI
11 14 16 17 16 13 12 11 10 10 10 9 9 10 10 10 11 11 14 18 19 17 15 16 19 19 17 15 13 11 9 8 7 7 6 4 2 2 2 2 1 0 0
14 15 16 16 15 13 11 9 9 9 9 9 9 10 11 10 11 13 14 17 19 19 18 17 18 19 18 17 16 14 11 9 7 7 6 3 1 1 1 1 0 0 0
18 18 17 16 15 12 11 11 9 9 9 9 9 11 12 13 13 15 15 15 18 20 20 18 16 16 17 18 18 16 13 11 9 8 6 2 0 0 0 0 1 1 1
23 22 19 18 16 12 13 14 12 11 10 9 9 10 12 14 16 16 16 15 17 20 20 17 15 14 14 15 16 16 14 13 11 9 6 2 0 0 0 1 2 2 2
25 22 20 20 17 13 12 13 14 13 11 9 8 9 12 14 16 15 15 15 17 19 18 16 14 12 11 12 14 15 14 13 12 10 7 4 2 0 0 1 2 2 1
20 19 18 20 18 13 11 12 13 13 12 10 9 10 12 15 16 15 15 15 15 16 18 17 14 11 9 10 13 14 14 13 12 11 9 6 3 1 0 0 1 1 0
15 16 16 18 18 16 15 15 15 13 12 11 11 11 10 12 14 14 14 15 15 16 18 18 16 12 10 9 10 12 13 13 12 11 9 7 5 1 0 0 0 0 0
14 15 18 19 21 21 19 18 16 14 12 11 11 11 10 9 9 10 12 14 16 17 16 15 17 17 14 10 9 9 11 12 11 11 10 9 6 2 0 0 0 0 0
15 17 20 21 22 23 20 17 16 15 13 11 11 12 11 9 8 9 11 12 13 15 14 12 15 21 19 14 12 10 9 9 9 10 11 10 7 2 0 0 0 0 0
20 21 22 23 23 22 19 16 16 17 15 13 13 14 14 12 10 10 10 9 12 14 13 11 14 20 20 17 16 14 9 6 6 7 9 9 7 4 2 2 1 1 1
28 27 27 28 27 23 20 18 19 19 17 15 14 15 14 12 10 9 7 7 11 15 15 15 15 18 19 17 17 15 10 4 3 4 6 7 7 6 5 5 4 3 3
36 33 31 32 33 29 25 23 23 23 20 17 15 14 14 13 10 8 6 5 9 14 17 17 16 15 16 14 13 11 8 4 1 2 3 4 5 5 6 6 6 5 5
38 37 34 34 35 32 28 27 27 26 24 19 15 12 12 12 10 9 8 7 9 12 14 14 13 13 12 11 8 6 6 4 1 0 1 1 2 3 4 5 6 5 5
39 41 37 33 32 29 27 28 29 28 26 21 16 13 11 11 10 10 10 10 10 10 10 11 11 11 11 11 7 5 5 3 1 0 0 0 0 1 1 3 3 3 3
39 40 35 29 26 24 24 26 27 27 25 21 17 14 14 12 10 9 11 12 10 7 7 10 12 11 12 10 6 4 5 4 2 1 0 0 0 0 0 1 1 1 1
35 34 30 25 22 21 21 22 23 22 21 19 16 15 16 14 11 10 11 11 10 6 5 8 10 11 11 8 5 5 5 4 3 2 0 0 0 0 0 0 0 0 0
29 29 27 24 22 20 19 19 18 17 17 17 15 15 15 14 12 12 11 10 10 7 4 4 7 11 12 9 6 6 5 4 3 1 0 0 0 0 0 0 0 0 0
25 26 25 24 22 21 19 18 15 14 16 16 16 16 15 14 14 14 12 10 9 8 6 4 5 9 12 11 9 8 6 6 5 2 0 0 0 0 0 0 0 0 0
23 23 22 22 22 22 21 18 15 14 15 15 15 17 17 16 15 15 13 12 10 10 9 6 5 8 10 11 11 9 8 8 7 4 1 0 0 0 0 0 0 0 0
21 21 21 21 21 21 21 19 16 15 15 15 14 15 16 16 16 15 14 14 12 11 11 9 7 7 9 11 11 11 10 10 9 6 3 1 1 0 0 0 0 0 0
20 20 20 19 18 17 16 17 17 16 16 15 14 14 14 14 13 12 12 12 10 10 11 10 9 8 8 10 11 10 10 10 10 8 6 4 2 1 1 1 0 0 0
21 20 18 16 15 12 10 11 12 14 16 17 16 14 12 10 9 9 9 7 6 6 8 10 9 9 9 9 9 9 8 9 11 10 9 6 4 3 3 2 1 0 0
24 22 18 16 15 11 7 6 6 10 14 18 17 15 11 8 7 9 8 6 5 5 6 6 7 8 8 8 7 7 7 8 11 12 10 8 6 4 4 3 2 1 0
24 22 19 17 16 12 7 4 3 7 12 15 15 14 13 10 8 9 10 10 8 6 5 4 5 6 6 6 7 7 8 9 11 11 10 9 7 5 4 3 2 1 0
23 21 20 18 16 11 6 2 3 7 11 13 12 12 13 12 9 8 10 12 11 9 7 6 5 5 4 4 5 7 9 10 11 11 10 10 9 7 5 4 2 1 0
23 21 20 19 16 10 4 1 2 7 11 12 12 12 11 10 8 6 8 12 12 10 9 7 6 4 4 3 3 6 9 11 11 11 11 12 11 9 6 4 2 1 0
Wind_Speed
2 2 1 1 2 2 3 3 3 3 3 3 3 4 3 3 3 2 3 8 9 9 9 9 9 9 8 8 9 10 10 10 9 8 8 8 8 8 9 9 9 10 10
2 2 2 2 2 1 1 2 2 2 2 2 3 3 3 3 2 3 3 6 9 9 9 9 10 9 8 7 8 9 9 9 9 9 8 8 7 7 8 9 9 9 8
1 1 2 2 2 2 2 2 2 2 2 3 3 2 2 2 2 3 3 3 5 8 10 10 9 9 8 8 9 9 9 9 9 9 9 8 8 8 8 9 9 9 9
1 1 1 1 1 2 2 2 2 1 2 2 2 2 2 2 3 4 3 3 4 5 7 10 10 9 9 9 10 10 9 9 9 9 9 9 9 9 9 10 10 10 10
1 2 1 1 1 1 1 2 2 1 2 2 2 3 3 3 3 3 3 4 3 4 5 8 11 11 10 10 10 10 10 9 9 9 10 10 10 9 9 10 10 10 10
2 2 2 2 2 1 1 1 1 1 2 2 3 2 2 3 3 3 4 4 4 5 5 5 6 7 10 10 11 11 10 10 9 9 10 10 10 9 9 9 9 10 10
2 2 2 1 2 1 2 2 1 2 2 2 1 1 2 3 3 4 3 3 4 4 4 6 5 4 5 9 10 11 11 10 9 9 9 9 9 9 10 10 9 10 10
2 2 2 1 2 1 2 2 1 2 2 1 1 1 1 1 2 3 3 3 3 3 3 5 5 5 4 4 7 11 11 11 11 10 9 9 9 8 9 9 10 10 10
1 1 1 2 1 1 1 2 2 3 2 2 1 1 1 1 1 1 2 3 2 2 2 3 5 5 5 4 6 10 12 11 11 10 10 9 9 9 9 9 9 9 9
2 1 1 2 1 1 1 3 2 2 2 2 2 1 1 1 1 1 1 1 2 2 2 3 3 4 4 4 5 9 12 11 11 11 10 10 9 9 9 9 9 9 9
2 1 1 1 1 1 1 1 1 1 1 2 2 1 1 2 2 2 1 1 1 1 2 2 2 3 4 4 5 8 12 12 11 10 10 10 10 10 9 9 9 9 9
2 2 2 1 0 1 1 1 1 2 1 2 2 1 1 1 1 2 2 2 2 2 2 2 2 2 3 4 6 10 12 12 11 10 9 9 9 9 9 9 9 9 8
2 1 1 1 1 1 1 1 1 1 1 1 2 2 2 2 2 2 2 2 2 2 2 2 2 2 3 3 4 10 11 12 11 11 10 9 8 7 8 8 8 8 8
1 2 2 1 1 0 1 1 1 1 1 1 2 2 2 2 2 2 2 2 2 2 2 2 2 2 2 2 4 8 6 11 11 11 10 9 8 8 7 7 8 8 7
1 2 2 2 1 0 0 0 0 0 1 2 2 2 2 2 2 2 2 2 2 2 3 2 1 2 2 2 6 4 4 9 11 11 10 10 9 9 8 8 8 8 8
0 1 1 1 1 1 1 1 1 1 1 1 1 2 2 2 2 2 2 2 1 2 3 2 2 2 2 2 5 4 4 9 11 12 11 11 10 10 10 10 9 9 8
1 0 0 0 1 1 1 1 1 1 1 1 2 1 1 1 2 2 2 2 1 2 3 2 2 1 2 2 3 3 4 5 7 12 12 12 11 11 11 11 10 9 9
0 0 0 0 1 1 1 2 2 1 1 1 2 2 2 1 2 2 2 2 2 2 2 3 2 2 3 4 4 4 4 5 5 11 13 13 12 12 12 11 11 10 9
0 1 0 1 1 1 1 2 2 2 2 2 2 2 1 1 2 2 2 2 2 3 2 3 3 2 2 3 3 4 4 3 5 7 12 12 13 12 12 12 11 10 10
1 0 1 1 0 0 1 2 2 2 2 2 2 2 2 2 2 3 3 2 2 2 3 3 3 3 3 3 3 3 3 3 3 4 5 7 10 12 12 12 12 11 10
1 0 1 1 1 1 1 1 2 3 2 3 2 2 2 2 2 3 3 2 2 2 3 3 3 2 2 2 2 3 3 2 3 3 3 4 5 6 7 10 12 12 12
0 0 0 0 1 1 2 2 2 3 3 3 3 2 3 3 2 4 4 4 3 3 3 3 3 3 3 2 2 2 2 2 3 2 3 4 5 5 6 7 11 14 14
1 1 0 0 0 1 2 3 4 4 4 3 3 3 4 2 1 2 3 4 5 7 6 4 4 4 3 2 2 3 3 3 4 3 3 4 4 4 5 7 13 14 14
1 1 1 1 1 1 1 2 4 4 4 3 3 3 2 2 2 2 3 3 4 4 5 4 4 4 4 3 3 4 4 4 4 3 3 3 3 3 3 4 11 14 13
1 2 1 2 1 1 0 1 2 3 2 3 3 2 2 1 1 2 2 3 4 4 5 5 5 5 5 5 4 2 3 3 4 3 2 3 3 2 2 3 6 13 13
2 2 1 1 1 1 1 0 1 3 3 3 2 1 1 1 1 1 2 3 4 4 4 4 4 4 5 6 7 5 4 4 3 3 2 2 2 2 2 2 3 5 7
Wind_Direction
207 180 195 197 204 199 196 205 213 223 220 220 230 228 228 208 201 183 155 171 178 188 194 198 203 207 206 205 206 202 200 202 202 201 205 207 206 203 201 199 197 198 196
190 185 202 216 221 210 207 216 215 216 222 217 223 230 230 212 197 180 168 177 187 191 198 203 206 206 203 202 198 195 198 200 199 197 198 197 197 197 195 191 189 191 194
196 208 210 208 212 203 210 217 224 216 218 212 212 223 222 210 189 184 181 181 188 198 200 203 204 201 200 198 197 197 198 200 200 196 196 196 196 197 197 195 193 192 195
200 229 234 220 210 216 202 201 211 216 234 222 198 215 208 201 200 191 188 192 191 192 197 200 198 198 201 201 201 201 201 203 202 199 199 199 197 199 201 200 199 198 199
196 220 239 226 237 241 220 226 178 212 226 233 219 209 210 196 190 200 192 194 197 191 186 190 194 198 203 204 203 202 201 201 201 201 202 200 199 198 200 199 200 199 201
217 230 223 203 229 241 230 240 221 228 238 229 250 233 218 205 191 196 203 193 196 199 188 181 186 200 204 205 203 202 203 202 201 202 198 197 199 196 196 197 199 200 202
228 229 270 192 218 231 222 237 233 239 248 233 239 261 240 221 199 192 199 195 195 201 187 176 181 180 190 199 199 197 200 202 200 197 195 195 196 197 199 202 202 201 202
233 230 250 252 216 226 225 241 228 248 248 225 219 253 269 247 242 213 190 198 195 190 190 187 170 178 186 178 189 196 199 201 201 200 199 198 199 200 201 206 208 206 204
202 266 220 264 248 233 214 223 221 226 242 233 200 199 215 237 232 211 208 198 180 174 196 188 181 179 187 179 175 190 195 196 198 201 202 203 205 206 206 210 210 208 206
189 216 228 240 262 257 231 230 219 241 244 256 234 228 233 205 228 254 236 183 182 196 212 215 190 179 181 173 171 171 182 189 195 200 202 206 209 210 208 206 206 207 207
185 202 205 221 235 248 254 248 203 231 243 254 261 249 255 241 229 215 241 226 219 209 216 219 210 188 179 179 173 173 176 182 189 197 204 208 209 207 206 207 208 209 208
184 190 185 204 210 273 269 242 224 208 241 262 275 272 250 240 241 229 228 244 237 226 220 213 214 199 182 174 181 172 174 180 187 193 199 204 208 207 207 209 209 208 208
176 169 161 136 169 257 272 230 183 209 221 253 272 277 269 259 241 236 228 244 248 244 223 218 216 197 190 159 165 168 175 180 188 192 197 202 205 206 208 210 210 206 208
163 142 142 134 127 350 303 311 215 205 216 235 251 264 274 274 260 250 241 238 263 267 240 226 215 191 174 162 164 171 175 186 192 194 196 201 204 203 205 204 201 203 208
199 122 141 143 141 151 299 293 265 249 230 243 253 258 268 281 287 283 273 247 232 260 260 238 229 215 185 159 160 175 177 187 192 194 196 199 202 204 203 199 199 202 205
34 113 146 154 153 188 220 251 242 225 238 249 251 268 270 281 289 282 288 288 259 251 267 244 232 222 207 198 174 189 193 186 194 197 200 201 202 204 201 199 201 202 204
50 33 72 105 234 240 246 256 260 254 250 276 280 272 269 286 304 310 306 291 270 261 267 276 253 223 204 196 188 211 205 192 197 201 202 203 202 200 199 201 202 203 205
33 348 14 297 262 285 290 277 278 288 277 273 280 288 294 299 297 302 307 304 288 271 260 272 265 238 220 205 196 213 220 216 201 198 201 202 200 199 200 201 202 204 207
339 329 291 288 307 326 320 314 307 290 281 275 279 281 280 287 297 299 288 288 287 284 272 264 264 243 233 218 201 217 223 232 227 193 195 199 197 195 198 201 202 203 204
176 334 310 293 265 3 349 326 315 295 282 277 277 282 275 262 271 281 272 273 279 282 271 262 260 248 234 221 202 212 223 223 234 209 194 190 193 197 200 201 202 201 201
167 184 279 291 266 186 339 336 306 294 295 289 287 283 283 286 277 278 282 289 284 277 272 260 252 251 245 220 221 218 224 229 231 210 188 192 184 196 202 207 207 203 200
177 214 264 312 321 355 26 5 326 298 282 279 287 292 274 248 261 261 267 272 273 271 282 279 268 256 250 245 247 241 236 233 237 209 190 212 190 198 199 199 201 197 198
188 233 239 273 100 63 20 346 326 288 278 273 271 274 286 295 300 293 276 267 270 265 256 265 270 268 256 243 248 251 237 234 242 232 207 227 206 209 203 200 189 192 196
202 230 243 252 217 81 14 320 312 278 276 272 269 264 270 280 303 318 301 297 288 282 271 255 260 270 267 252 237 245 245 248 250 240 210 226 222 218 211 183 187 190 194
227 233 224 228 209 150 30 319 320 286 280 285 278 279 289 269 314 318 303 296 293 290 284 274 263 265 265 267 255 253 247 239 252 248 217 214 227 221 214 204 193 193 191
239 242 234 228 213 156 199 301 325 296 303 301 289 264 45 338 299 303 286 288 287 290 302 299 285 268 259 255 241 229 238 245 248 252 229 211 227 215 229 209 181 183 194